Miscellaneous Local Product
Issued by NWS Hastings, NE

Home | Current Version | Previous Version | Text Only | Print | Product List | Glossary On
Versions: 1 2 3 4 5 6 7 8 9 10 11 12 13 14 15 16 17 18 19 20 21 22 23 24 25 26 27 28 29 30 31 32 33 34 35 36 37 38 39 40 41 42 43 44 45 46 47 48 49 50
922
AXUS43 KGID 241902
MISGRI

GID CWA HOURLY WEATHER ROUNDUP
NATIONAL WEATHER SERVICE HASTINGS NE
200 PM CDT FRI MAR 24 2017

NOTE: "FAIR" INDICATES FEW OR NO CLOUDS BELOW 12,000 FEET WITH NO
SIGNIFICANT WEATHER AND/OR OBSTRUCTIONS TO VISIBILITY.

...SOUTH CENTRAL NEBRASKA...

CITY           SKY/WX    TMP DP  RH WIND       PRES   REMARKS
GRAND ISLAND   LGT RAIN  40  40 100 N23G30    29.97S FOG     WCI  30
HASTINGS       CLOUDY    41  39  93 N24G32    29.93F FOG
KEARNEY        CLOUDY    39  36  87 N21       29.97S WCI  29
ORD            LGT RAIN  40  37  89 N21G29    30.00R FOG     WCI  30
YORK           PTSUNNY   41  41 100 NE23      29.95S FOG
AURORA         CLOUDY    41  39  95 N21       29.95S
LEXINGTON      LGT RAIN  41  38  90 NE22G29   29.97S
HOLDREGE       CLOUDY    40  39  94 NE28G36   29.93S FOG     WCI  29
HEBRON         CLOUDY    48  44  85 N20G31    29.88F

...NEBRASKA PANHANDLE...

CITY           SKY/WX    TMP DP  RH WIND       PRES   REMARKS
CHADRON        MOSUNNY   56  38  50 VRB7      30.11F
ALLIANCE       NOT AVBL
SCOTTSBLUFF    MOSUNNY   57  32  38 N22G29    30.11S
SIDNEY         CLOUDY    46  36  68 N23G32    30.10R

...WESTERN AND NORTH CENTRAL NEBRASKA...

CITY           SKY/WX    TMP DP  RH WIND       PRES   REMARKS
VALENTINE      CLOUDY    54  35  48 NE18G30   30.09R
AINSWORTH      CLOUDY    47  39  74 N15       30.08R
ONEILL         CLOUDY    40  39  95 N12G17    30.06S WCI  33
BROKEN BOW     CLOUDY    41  38  89 N20G30    29.99R
IMPERIAL       LGT RAIN  42  39  89 N30G37    29.99R FOG
NORTH PLATTE   CLOUDY    44  39  82 N28G38    29.97R
MCCOOK         LGT RAIN  42  40  92 NE23      29.96R FOG

...EASTERN NEBRASKA...

CITY           SKY/WX    TMP DP  RH WIND       PRES   REMARKS
NORFOLK        RAIN      39  37  92 N15       30.01R FOG     WCI  31
SO SIOUX CITY  CLOUDY    42  40  92 N15       30.02R
TEKAMAH        CLOUDY    44  41  89 N17       29.97S
COLUMBUS       CLOUDY    41  37  87 N14       29.99S
ALBION         LGT RAIN  41  37  88 N14G21    30.00S
OMAHA EPPLEY   CLOUDY    47  42  83 N16       29.95R
OFFUTT AFB     CLOUDY    48  44  85 N10G17    29.93R
MILLARD        CLOUDY    48  45  88 N8        29.95R
LINCOLN        CLOUDY    46  43  89 N21       29.94S
NEBRASKA CITY  CLOUDY    53  49  86 N17       29.88F
BEATRICE       CLOUDY    50  47  89 N15G22    29.88S
FALLS CITY     CLOUDY    66  55  67 SE13      29.83F

...NORTHERN KANSAS...

CITY           SKY/WX    TMP DP  RH WIND       PRES   REMARKS
GOODLAND       CLOUDY    41  40  96 N23       29.95R
HILL CITY      CLOUDY    45  42  89 NE26G32   29.91R
NORTON         CLOUDY    41  36  81 N25G33    29.91
HAYS             N/A     60  47  61 N31G37    29.79R
RUSSELL        SUNNY     73  30  20 N10G23    29.77S
CONCORDIA      PTSUNNY   57  50  77 NE21G29   29.81F
SALINA         SUNNY     77  34  21 S12       29.77S
TOPEKA         CLOUDY    67  56  67 SE9       29.81F



USA.gov is the U.S. government's official web portal to all federal, state and local government web resources and services.